TimeCDT,TemperatureF,Dew PointF,Humidity,Sea Level PressureIn,VisibilityMPH,Wind Direction,Wind SpeedMPH,Gust SpeedMPH,PrecipitationIn,Events,Conditions,WindDirDegrees,DateUTC
12:53 AM,59.0,39.9,49,30.19,10.0,ESE,5.8,-,N/A,,Clear,110,2013-04-26 05:53:00
2:53 AM,53.1,46.0,77,30.22,10.0,East,3.5,-,N/A,,Overcast,80,2013-04-26 07:53:00
3:53 AM,53.1,46.9,80,30.23,10.0,Calm,Calm,-,N/A,,Overcast,0,2013-04-26 08:53:00
4:53 AM,55.0,43.0,64,30.22,10.0,East,5.8,-,N/A,,Overcast,100,2013-04-26 09:53:00
5:53 AM,54.0,43.0,66,30.19,10.0,East,4.6,-,N/A,,Mostly Cloudy,100,2013-04-26 10:53:00
6:53 AM,54.0,46.0,75,30.19,10.0,East,3.5,-,N/A,,Overcast,80,2013-04-26 11:53:00
7:53 AM,55.9,45.0,67,30.20,10.0,East,4.6,-,N/A,,Overcast,80,2013-04-26 12:53:00
8:53 AM,57.0,46.0,67,30.21,10.0,ENE,3.5,-,N/A,,Overcast,70,2013-04-26 13:53:00
9:51 AM,57.2,48.2,72,30.23,9.0,ENE,6.9,-,0.00,,Overcast,60,2013-04-26 14:51:00
9:53 AM,57.0,48.0,72,30.22,9.0,ENE,6.9,-,0.00,,Overcast,60,2013-04-26 14:53:00
10:40 AM,55.0,48.9,80,30.26,1.8,Calm,Calm,-,0.02,Rain,Rain,0,2013-04-26 15:40:00
10:53 AM,54.0,48.9,83,30.24,1.5,ESE,4.6,-,0.08,Rain,Light Rain,110,2013-04-26 15:53:00
11:07 AM,54.0,51.1,90,30.23,3.0,ESE,8.1,-,0.00,Rain,Light Rain,110,2013-04-26 16:07:00
11:19 AM,54.0,51.1,90,30.22,3.0,ESE,8.1,-,0.00,,Overcast,120,2013-04-26 16:19:00
11:27 AM,54.0,51.1,90,30.21,2.0,ESE,9.2,-,0.00,,Overcast,110,2013-04-26 16:27:00
11:37 AM,54.0,51.1,90,30.21,3.0,ESE,8.1,-,0.00,,Overcast,110,2013-04-26 16:37:00
11:53 AM,55.0,52.0,89,30.21,3.0,East,5.8,-,0.00,,Overcast,100,2013-04-26 16:53:00
12:53 PM,57.0,53.1,87,30.19,6.0,ESE,3.5,-,N/A,,Overcast,110,2013-04-26 17:53:00
1:53 PM,57.9,53.1,84,30.17,6.0,Calm,Calm,-,N/A,,Haze,0,2013-04-26 18:53:00
2:53 PM,61.0,55.0,81,30.14,6.0,East,6.9,-,N/A,,Haze,100,2013-04-26 19:53:00
3:08 PM,61.0,55.0,81,30.14,6.0,East,5.8,-,N/A,,Haze,100,2013-04-26 20:08:00
3:29 PM,62.1,55.9,80,30.13,5.0,East,9.2,-,N/A,,Haze,90,2013-04-26 20:29:00
3:49 PM,60.8,55.4,82,30.13,5.0,East,8.1,-,N/A,,Overcast,80,2013-04-26 20:49:00
3:53 PM,60.1,55.9,86,30.13,5.0,East,6.9,-,N/A,,Overcast,80,2013-04-26 20:53:00
4:28 PM,59.0,55.0,87,30.13,5.0,East,12.7,-,N/A,,Overcast,80,2013-04-26 21:28:00
4:39 PM,59.0,55.0,87,30.14,5.0,East,9.2,-,N/A,,Overcast,80,2013-04-26 21:39:00
4:53 PM,57.9,54.0,87,30.12,5.0,East,12.7,-,N/A,,Overcast,80,2013-04-26 21:53:00
5:43 PM,57.9,54.0,87,30.13,6.0,East,11.5,-,N/A,,Overcast,80,2013-04-26 22:43:00
5:51 PM,57.2,53.6,88,30.13,5.0,East,11.5,-,N/A,,Overcast,80,2013-04-26 22:51:00
5:53 PM,57.9,54.0,87,30.12,5.0,ENE,9.2,-,N/A,,Overcast,70,2013-04-26 22:53:00
6:53 PM,57.0,54.0,89,30.09,7.0,East,12.7,-,N/A,,Overcast,90,2013-04-26 23:53:00
7:22 PM,57.0,54.0,89,30.09,7.0,ENE,9.2,-,N/A,,Overcast,70,2013-04-27 00:22:00
7:53 PM,57.0,54.0,89,30.09,7.0,ENE,10.4,-,N/A,,Overcast,70,2013-04-27 00:53:00
8:53 PM,57.0,53.1,87,30.10,7.0,ENE,9.2,-,N/A,,Overcast,70,2013-04-27 01:53:00
9:06 PM,57.0,53.1,87,30.11,7.0,ENE,9.2,-,N/A,,Overcast,60,2013-04-27 02:06:00
9:13 PM,57.0,53.1,87,30.11,7.0,East,8.1,-,N/A,,Overcast,80,2013-04-27 02:13:00
9:50 PM,57.2,53.6,88,30.11,7.0,East,9.2,-,N/A,,Overcast,90,2013-04-27 02:50:00
9:53 PM,57.0,53.1,87,30.10,7.0,East,9.2,-,N/A,,Overcast,80,2013-04-27 02:53:00
10:31 PM,57.0,53.1,87,30.10,8.0,East,6.9,-,N/A,,Overcast,80,2013-04-27 03:31:00
10:53 PM,57.0,52.0,83,30.09,8.0,East,6.9,-,N/A,,Overcast,80,2013-04-27 03:53:00
11:53 PM,57.0,52.0,83,30.08,9.0,East,6.9,-,N/A,,Overcast,90,2013-04-27 04:53:00